Regional Weather Roundup
Issued by NWS

Home | Current Version | Previous Version | Text Only | Print | Product List | Glossary Off
Versions: 1 2 3 4 5 6 7 8 9 10 11 12 13 14 15 16 17 18 19 20 21 22 23 24 25 26 27 28 29 30 31 32 33 34 35 36 37 38 39 40 41 42 43 44 45 46 47 48 49 50

000
ASUS44 KMEG 181700
RWRTN
TENNESSEE HOURLY STATE WEATHER ROUNDUP
NATIONAL WEATHER SERVICE MEMPHIS TN
1200 PM CDT WED OCT 18 2017

TNZ002-004-019-021-049-052-054-088>092-181800-
WEST TENNESSEE

CITY           SKY/WX    TMP DP  RH WIND       PRES   REMARKS
MEMPHIS INTL   SUNNY     69  47  45 SW9       30.27F
NWS MEMPHIS      N/A     69 N/A N/A MISG        N/A
JACKSON        SUNNY     68  47  46 S9        30.29F
$$

TNZ008-025-027-028-033-062-065-066-181800-
NORTH MIDDLE TENNESSEE

CITY           SKY/WX    TMP DP  RH WIND       PRES   REMARKS
NASHVILLE      MOSUNNY   69  42  37 S13       30.33F
CLARKSVILLE    SUNNY     67  46  47 W9        30.30F
SMYRNA         SUNNY     67  46  47 VRB3      30.34F
CROSSVILLE     SUNNY     63  43  48 VRB3      30.35F
$$

TNZ061-075-076-078-094-096-097-181800-
SOUTH MIDDLE TENNESSEE

CITY           SKY/WX    TMP DP  RH WIND       PRES   REMARKS
TULLAHOMA      SUNNY     64  41  42 SE3       30.34F
WINCHESTER     SUNNY     66  43  42 S7          N/A
$$

TNZ017-018-042-046-047-181800-
NORTHEAST TENNESSEE

CITY           SKY/WX    TMP DP  RH WIND       PRES   REMARKS
TRI CITIES     MOSUNNY   63  44  50 CALM      30.36F
$$

TNZ012-013-036-069-073-074-181800-
CENTRAL EAST TENNESSEE

CITY           SKY/WX    TMP DP  RH WIND       PRES   REMARKS
KNOXVILLE      PTSUNNY   63  49  60 CALM      30.34F
OAK RIDGE      SUNNY     61  48  62 VRB3      30.36F
$$

TNZ083-085-099-181800-
SOUTHEAST TENNESSEE

CITY           SKY/WX    TMP DP  RH WIND       PRES   REMARKS
CHATTANOOGA    MOSUNNY   65  45  48 VRB3      30.35F
$$

SKY/WX REPORTED AS FAIR MEANS FEW OR NO CLOUDS BELOW
12 THOUSAND FEET.





USA.gov is the U.S. government's official web portal to all federal, state and local government web resources and services.